Skip Page Navigation
NASA JPL Caltech
NASA Logo - Jet Propulsion Laboratory + View the NASA Portal
+ Center for Near-Earth Object Studies
JPL Home Earth Solar System Stars & Galaxies Technology
JPL Solar System Dynamics
BODIES ORBITS EPHEMERIDES TOOLS PHYSICAL DATA DISCOVERY FAQ SITE MAP
JPL Small-Body Database Browser
Search: [ help ]  
65252 (2002 FP24)
Classification: Outer Main-belt Asteroid          SPK-ID: 2065252
Ephemeris | Orbit Diagram | Orbital Elements | Mission Design | Physical Parameters | Discovery Circumstances | Close-Approach Data ]

[ show orbit diagram ]
Orbital Elements at Epoch 2459000.5 (2020-May-31.0) TDB
Reference: JPL 25 (heliocentric ecliptic J2000)
 Element Value Uncertainty (1-sigma)   Units 
e .1458417123213729 4.519e-08  
a 3.219795630593806 3.2329e-08 au
q 2.750215122503131 1.5019e-07 au
i 17.95238897503992 5.5789e-06 deg
node 70.09815269048447 1.6988e-05 deg
peri 258.5947786945766 2.7933e-05 deg
M 236.9595368246097 2.6056e-05 deg
tp 2459721.750859096814
(2022-May-22.25085910)
0.00015837 TDB
period 2110.283906398577
5.78
3.1783e-05
8.702e-08
d
yr
n .1705931599575046 2.5693e-09 deg/d
Q 3.689376138684482 3.7044e-08 au
  Orbit Determination Parameters
   # obs. used (total)      923  
   data-arc span      13652 days (37.38 yr)  
   first obs. used      1982-12-13  
   last obs. used      2020-04-29  
   planetary ephem.      DE431  
   SB-pert. ephem.      SB431-N16  
   condition code      0  
   norm. resid. RMS      .49805  
   source      ORB  
   producer      Otto Matic  
   solution date      2020-May-20 12:49:38  

Additional Information
 Earth MOID = 1.80852 au 
 Jupiter MOID = 1.78168 au 
 T_jup = 3.097 
[ show covariance matrix ]

Ephemeris | Orbit Diagram | Orbital Elements | Mission Design | Physical Parameters | Discovery Circumstances | Close-Approach Data ]

Physical Parameter Table
Parameter Symbol Value Units Sigma Reference Notes
absolute magnitude H 13.7   n/a MPO474530  
diameter diameter 10.657 km 0.086 urn:nasa:pds:neowise_diameters_albedos::2.0[mainbelt] (http://adsabs.harvard.edu/abs/2011ApJ...741...68M)  
geometric albedo albedo 0.040   0.010 urn:nasa:pds:neowise_diameters_albedos::2.0[mainbelt] (http://adsabs.harvard.edu/abs/2011ApJ...741...68M)  

65252 (2002 FP24)          Discovered 2002-Mar-19 by NEAT at Palomar
Reference: 20030614/Numbers.arcLast Updated: 2004-04-19

[ show close-approach data ]
Alternate Designations
 2002 FP24 = 1982 XQ2 
Ephemeris | Orbit Diagram | Orbital Elements | Mission Design | Physical Parameters | Discovery Circumstances | Close-Approach Data ]
ABOUT SSD CREDITS/AWARDS PRIVACY/COPYRIGHT GLOSSARY LINKS
FirstGov 2020-Oct-25 00:59 UT
(server date/time)  
NASA Home Page
Site Manager:   Ryan S. Park
Webmaster  Alan B. Chamberlin